Location: Recife
(8.0585°S, 34.8848°W)
Time: 06:51:00
(UTC-03:00)

Courier 1B - Pass Details

Date: 17 April 2026
Orbit: 962 x 1209 km, 28.3° (Epoch: 13 May)

Event Time Altitude Azimuth Distance (km) Brightness Sun altitude
Rises 07:21:22 0° 258° (WSW) 4,064 10.2 28.0°
Reaches altitude 10° 07:24:56 10° 244° (WSW) 3,126 9.7 28.8°
Maximum altitude 07:30:46 22° 195° (SSW) 2,346 9.4 30.2°
Drops below altitude 10° 07:36:39 10° 147° (SSE) 3,143 10.4 31.6°
Sets 07:40:16 0° 132° (SE) 4,093 11.1 32.4°
